Year,Month,Day,Hour,Minute,Value (Times are PST for temperature in C)
2012,08,16,00,00,21.40
2012,08,16,00,01,21.40
2012,08,16,00,02,21.40
2012,08,16,00,03,21.50
2012,08,16,00,04,21.50
2012,08,16,00,05,21.60
2012,08,16,00,06,21.60
2012,08,16,00,07,21.70
2012,08,16,00,08,21.70
2012,08,16,00,09,21.80
2012,08,16,00,10,21.80
2012,08,16,00,11,21.80
2012,08,16,00,12,21.80
2012,08,16,00,13,21.80
2012,08,16,00,14,21.90
2012,08,16,00,15,21.90
2012,08,16,00,16,21.90
2012,08,16,00,17,21.90
2012,08,16,00,18,21.90
2012,08,16,00,19,22.00
2012,08,16,00,20,22.00
2012,08,16,00,21,22.00
2012,08,16,00,22,22.10
2012,08,16,00,23,22.10
2012,08,16,00,24,22.10
2012,08,16,00,25,22.20
2012,08,16,00,26,22.30
2012,08,16,00,27,22.40
2012,08,16,00,28,22.40
2012,08,16,00,29,22.50
2012,08,16,00,30,22.40
2012,08,16,00,31,22.40
2012,08,16,00,32,22.40
2012,08,16,00,33,22.40
2012,08,16,00,34,22.30
2012,08,16,00,35,22.30
2012,08,16,00,36,22.30
2012,08,16,00,37,22.30
2012,08,16,00,38,22.20
2012,08,16,00,39,22.20
2012,08,16,00,40,22.20
2012,08,16,00,41,22.30
2012,08,16,00,42,22.30
2012,08,16,00,43,22.30
2012,08,16,00,44,22.30
2012,08,16,00,45,22.30
2012,08,16,00,46,22.20
2012,08,16,00,47,22.20
2012,08,16,00,48,22.20
2012,08,16,00,49,22.20
2012,08,16,00,50,22.10
2012,08,16,00,51,22.10
2012,08,16,00,52,22.10
2012,08,16,00,53,22.10
2012,08,16,00,54,22.20
2012,08,16,00,55,22.30
2012,08,16,00,56,22.60
2012,08,16,00,57,22.90
2012,08,16,00,58,23.10
2012,08,16,00,59,23.30
2012,08,16,01,00,23.50
2012,08,16,01,01,23.70
2012,08,16,01,02,23.80
2012,08,16,01,03,23.90
2012,08,16,01,04,24.00
2012,08,16,01,05,24.10
2012,08,16,01,06,24.10
2012,08,16,01,07,24.20
2012,08,16,01,08,24.20
2012,08,16,01,09,24.30
2012,08,16,01,10,24.30
2012,08,16,01,11,24.30
2012,08,16,01,12,24.40
2012,08,16,01,13,24.40
2012,08,16,01,14,24.40
2012,08,16,01,15,24.40
2012,08,16,01,16,24.40
2012,08,16,01,17,24.40
2012,08,16,01,18,24.40
2012,08,16,01,19,24.30
2012,08,16,01,20,24.30
2012,08,16,01,21,24.20
2012,08,16,01,22,24.10
2012,08,16,01,23,23.90
2012,08,16,01,24,23.80
2012,08,16,01,25,23.70
2012,08,16,01,26,23.70
2012,08,16,01,27,23.70
2012,08,16,01,28,23.60
2012,08,16,01,29,23.60
2012,08,16,01,30,23.60
2012,08,16,01,31,23.50
2012,08,16,01,32,23.40
2012,08,16,01,33,23.40
2012,08,16,01,34,23.30
2012,08,16,01,35,23.30
2012,08,16,01,36,23.30
2012,08,16,01,37,23.20
2012,08,16,01,38,23.20
2012,08,16,01,39,23.20
2012,08,16,01,40,23.20
2012,08,16,01,41,23.30
2012,08,16,01,42,23.30
2012,08,16,01,43,23.30
2012,08,16,01,44,23.30
2012,08,16,01,45,23.30
2012,08,16,01,46,23.30
2012,08,16,01,47,23.30
2012,08,16,01,48,23.40
2012,08,16,01,49,23.50
2012,08,16,01,50,23.50
2012,08,16,01,51,23.60
2012,08,16,01,52,23.60
2012,08,16,01,53,23.60
2012,08,16,01,54,23.50
2012,08,16,01,55,23.50
2012,08,16,01,56,23.40
2012,08,16,01,57,23.40
2012,08,16,01,58,23.40
2012,08,16,01,59,23.40
2012,08,16,02,00,23.40
2012,08,16,02,01,23.40
2012,08,16,02,02,23.40
2012,08,16,02,03,23.40
2012,08,16,02,04,23.60
2012,08,16,02,05,23.70
2012,08,16,02,06,23.70
2012,08,16,02,07,23.80
2012,08,16,02,08,23.80
2012,08,16,02,09,23.80
2012,08,16,02,10,23.80
2012,08,16,02,11,23.80
2012,08,16,02,12,23.80
2012,08,16,02,13,23.70
2012,08,16,02,14,23.70
2012,08,16,02,15,23.70
2012,08,16,02,16,23.60
2012,08,16,02,17,23.60
2012,08,16,02,18,23.50
2012,08,16,02,19,23.40
2012,08,16,02,20,23.30
2012,08,16,02,21,23.30
2012,08,16,02,22,23.20
2012,08,16,02,23,23.20
2012,08,16,02,24,23.20
2012,08,16,02,25,23.10
2012,08,16,02,26,23.10
2012,08,16,02,27,23.10
2012,08,16,02,28,23.00
2012,08,16,02,29,23.00
2012,08,16,02,30,23.00
2012,08,16,02,31,22.90
2012,08,16,02,32,22.90
2012,08,16,02,33,22.90
2012,08,16,02,34,22.80
2012,08,16,02,35,22.80
2012,08,16,02,36,22.80
2012,08,16,02,37,22.80
2012,08,16,02,38,22.90
2012,08,16,02,39,22.90
2012,08,16,02,40,22.90
2012,08,16,02,41,22.90
2012,08,16,02,42,22.90
2012,08,16,02,43,22.90
2012,08,16,02,44,22.90
2012,08,16,02,45,22.90
2012,08,16,02,46,22.90
2012,08,16,02,47,22.90
2012,08,16,02,48,22.90
2012,08,16,02,49,22.90
2012,08,16,02,50,22.90
2012,08,16,02,51,22.90
2012,08,16,02,52,22.90
2012,08,16,02,53,22.90
2012,08,16,02,54,22.90
2012,08,16,02,55,22.90
2012,08,16,02,56,22.80
2012,08,16,02,57,22.80
2012,08,16,02,58,22.70
2012,08,16,02,59,22.60
2012,08,16,03,00,22.60
2012,08,16,03,01,22.50
2012,08,16,03,02,22.40
2012,08,16,03,03,22.30
2012,08,16,03,04,22.30
2012,08,16,03,05,22.20
2012,08,16,03,06,22.10
2012,08,16,03,07,22.10
2012,08,16,03,08,22.00
2012,08,16,03,09,21.90
2012,08,16,03,10,21.90
2012,08,16,03,11,21.90
2012,08,16,03,12,21.90
2012,08,16,03,13,21.90
2012,08,16,03,14,21.90
2012,08,16,03,15,21.80
2012,08,16,03,16,21.80
2012,08,16,03,17,21.70
2012,08,16,03,18,21.70
2012,08,16,03,19,21.60
2012,08,16,03,20,21.60
2012,08,16,03,21,21.50
2012,08,16,03,22,21.50
2012,08,16,03,23,21.40
2012,08,16,03,24,21.40
2012,08,16,03,25,21.40
2012,08,16,03,26,21.50
2012,08,16,03,27,21.50
2012,08,16,03,28,21.60
2012,08,16,03,29,21.70
2012,08,16,03,30,21.70
2012,08,16,03,31,21.80
2012,08,16,03,32,21.80
2012,08,16,03,33,21.90
2012,08,16,03,34,21.90
2012,08,16,03,35,22.00
2012,08,16,03,36,22.10
2012,08,16,03,37,22.10
2012,08,16,03,38,22.10
2012,08,16,03,39,22.10
2012,08,16,03,40,22.10
2012,08,16,03,41,22.10
2012,08,16,03,42,22.10
2012,08,16,03,43,22.00
2012,08,16,03,44,21.90
2012,08,16,03,45,21.90
2012,08,16,03,46,21.80
2012,08,16,03,47,21.80
2012,08,16,03,48,21.70
2012,08,16,03,49,21.60
2012,08,16,03,50,21.60
2012,08,16,03,51,21.50
2012,08,16,03,52,21.40
2012,08,16,03,53,21.30
2012,08,16,03,54,21.20
2012,08,16,03,55,21.10
2012,08,16,03,56,21.00
2012,08,16,03,57,20.80
2012,08,16,03,58,20.70
2012,08,16,03,59,20.70
2012,08,16,04,00,20.60
2012,08,16,04,01,20.50
2012,08,16,04,02,20.40
2012,08,16,04,03,20.40
2012,08,16,04,04,20.40
2012,08,16,04,05,20.30
2012,08,16,04,06,20.40
2012,08,16,04,07,20.40
2012,08,16,04,08,20.40
2012,08,16,04,09,20.40
2012,08,16,04,10,20.40
2012,08,16,04,11,20.30
2012,08,16,04,12,20.30
2012,08,16,04,13,20.30
2012,08,16,04,14,20.30
2012,08,16,04,15,20.30
2012,08,16,04,16,20.30
2012,08,16,04,17,20.30
2012,08,16,04,18,20.30
2012,08,16,04,19,20.30
2012,08,16,04,20,20.30
2012,08,16,04,21,20.30
2012,08,16,04,22,20.30
2012,08,16,04,23,20.40
2012,08,16,04,24,20.40
2012,08,16,04,25,20.40
2012,08,16,04,26,20.50
2012,08,16,04,27,20.50
2012,08,16,04,28,20.60
2012,08,16,04,29,20.60
2012,08,16,04,30,20.60
2012,08,16,04,31,20.60
2012,08,16,04,32,20.70
2012,08,16,04,33,20.70
2012,08,16,04,34,20.80
2012,08,16,04,35,20.80
2012,08,16,04,36,20.70
2012,08,16,04,37,20.70
2012,08,16,04,38,20.70
2012,08,16,04,39,20.70
2012,08,16,04,40,20.70
2012,08,16,04,41,20.70
2012,08,16,04,42,20.70
2012,08,16,04,43,20.70
2012,08,16,04,44,20.70
2012,08,16,04,45,20.70
2012,08,16,04,46,20.70
2012,08,16,04,47,20.70
2012,08,16,04,48,20.80
2012,08,16,04,49,20.80
2012,08,16,04,50,20.90
2012,08,16,04,51,20.90
2012,08,16,04,52,21.00
2012,08,16,04,53,21.10
2012,08,16,04,54,21.10
2012,08,16,04,55,21.10
2012,08,16,04,56,21.10
2012,08,16,04,57,21.10
2012,08,16,04,58,21.00
2012,08,16,04,59,20.90
2012,08,16,05,00,20.80
2012,08,16,05,01,20.70
2012,08,16,05,02,20.50
2012,08,16,05,03,20.40
2012,08,16,05,04,20.30
2012,08,16,05,05,20.20
2012,08,16,05,06,20.00
2012,08,16,05,07,19.80
2012,08,16,05,08,19.70
2012,08,16,05,09,19.50
2012,08,16,05,10,19.40
2012,08,16,05,11,19.20
2012,08,16,05,12,19.10
2012,08,16,05,13,19.00
2012,08,16,05,14,18.80
2012,08,16,05,15,18.70
2012,08,16,05,16,18.60
2012,08,16,05,17,18.60
2012,08,16,05,18,18.50
2012,08,16,05,19,18.40
2012,08,16,05,20,18.30
2012,08,16,05,21,18.30
2012,08,16,05,22,18.40
2012,08,16,05,23,18.40
2012,08,16,05,24,18.40
2012,08,16,05,25,18.40
2012,08,16,05,26,18.50
2012,08,16,05,27,18.70
2012,08,16,05,28,18.80
2012,08,16,05,29,18.80
2012,08,16,05,30,18.80
2012,08,16,05,31,18.80
2012,08,16,05,32,18.80
2012,08,16,05,33,18.70
2012,08,16,05,34,18.70
2012,08,16,05,35,18.70
2012,08,16,05,36,18.80
2012,08,16,05,37,18.80
2012,08,16,05,38,18.80
2012,08,16,05,39,18.80
2012,08,16,05,40,18.80
2012,08,16,05,41,18.80
2012,08,16,05,42,18.80
2012,08,16,05,43,18.80
2012,08,16,05,44,18.80
2012,08,16,05,45,18.80
2012,08,16,05,46,18.70
2012,08,16,05,47,18.70
2012,08,16,05,48,18.70
2012,08,16,05,49,18.70
2012,08,16,05,50,18.70
2012,08,16,05,51,18.70
2012,08,16,05,52,18.70
2012,08,16,05,53,18.70
2012,08,16,05,54,18.80
2012,08,16,05,55,18.80
2012,08,16,05,56,18.80
2012,08,16,05,57,18.80
2012,08,16,05,58,18.70
2012,08,16,05,59,18.70
2012,08,16,06,00,18.70
2012,08,16,06,01,18.60
2012,08,16,06,02,18.50
2012,08,16,06,03,18.40
2012,08,16,06,04,18.30
2012,08,16,06,05,18.20
2012,08,16,06,06,18.20
2012,08,16,06,07,18.10
2012,08,16,06,08,18.10
2012,08,16,06,09,18.00
2012,08,16,06,10,17.90
2012,08,16,06,11,17.90
2012,08,16,06,12,17.90
2012,08,16,06,13,17.90
2012,08,16,06,14,17.90
2012,08,16,06,15,17.80
2012,08,16,06,16,17.80
2012,08,16,06,17,17.80
2012,08,16,06,18,17.80
2012,08,16,06,19,17.80
2012,08,16,06,20,17.80
2012,08,16,06,21,17.80
2012,08,16,06,22,17.80
2012,08,16,06,23,17.90
2012,08,16,06,24,17.90
2012,08,16,06,25,17.90
2012,08,16,06,26,17.90
2012,08,16,06,27,17.90
2012,08,16,06,28,17.90
2012,08,16,06,29,17.90
2012,08,16,06,30,18.00
2012,08,16,06,31,18.10
2012,08,16,06,32,18.20
2012,08,16,06,33,18.40
2012,08,16,06,34,18.40
2012,08,16,06,35,18.50
2012,08,16,06,36,18.50
2012,08,16,06,37,18.50
2012,08,16,06,38,18.50
2012,08,16,06,39,18.50
2012,08,16,06,40,18.50
2012,08,16,06,41,18.50
2012,08,16,06,42,18.50
2012,08,16,06,43,18.50
2012,08,16,06,44,18.40
2012,08,16,06,45,18.40
2012,08,16,06,46,18.40
2012,08,16,06,47,18.40
2012,08,16,06,48,18.30
2012,08,16,06,49,18.30
2012,08,16,06,50,18.30
2012,08,16,06,51,18.30
2012,08,16,06,52,18.30
2012,08,16,06,53,18.20
2012,08,16,06,54,18.20
2012,08,16,06,55,18.20
2012,08,16,06,56,18.20
2012,08,16,06,57,18.20
2012,08,16,06,58,18.20
2012,08,16,06,59,18.20
2012,08,16,07,00,18.20
2012,08,16,07,01,18.20
2012,08,16,07,02,18.20
2012,08,16,07,03,18.30
2012,08,16,07,04,18.40
2012,08,16,07,05,18.40
2012,08,16,07,06,18.50
2012,08,16,07,07,18.60
2012,08,16,07,08,18.70
2012,08,16,07,09,18.80
2012,08,16,07,10,18.80
2012,08,16,07,11,18.90
2012,08,16,07,12,18.90
2012,08,16,07,13,18.90
2012,08,16,07,14,18.90
2012,08,16,07,15,19.00
2012,08,16,07,16,19.00
2012,08,16,07,17,19.00
2012,08,16,07,18,19.00
2012,08,16,07,19,19.10
2012,08,16,07,20,19.10
2012,08,16,07,21,19.20
2012,08,16,07,22,19.30
2012,08,16,07,23,19.30
2012,08,16,07,24,19.40
2012,08,16,07,25,19.50
2012,08,16,07,26,19.60
2012,08,16,07,27,19.70
2012,08,16,07,28,19.80
2012,08,16,07,29,19.80
2012,08,16,07,30,19.90
2012,08,16,07,31,19.90
2012,08,16,07,32,20.00
2012,08,16,07,33,20.10
2012,08,16,07,34,20.20
2012,08,16,07,35,20.20
2012,08,16,07,36,20.30
2012,08,16,07,37,20.50
2012,08,16,07,38,20.60
2012,08,16,07,39,20.70
2012,08,16,07,40,20.80
2012,08,16,07,41,20.90
2012,08,16,07,42,21.00
2012,08,16,07,43,21.10
2012,08,16,07,44,21.20
2012,08,16,07,45,21.30
2012,08,16,07,46,21.50
2012,08,16,07,47,21.60
2012,08,16,07,48,21.80
2012,08,16,07,49,21.90
2012,08,16,07,50,22.10
2012,08,16,07,51,22.20
2012,08,16,07,52,22.40
2012,08,16,07,53,22.50
2012,08,16,07,54,22.70
2012,08,16,07,55,22.70
2012,08,16,07,56,22.80
2012,08,16,07,57,22.90
2012,08,16,07,58,23.00
2012,08,16,07,59,23.10
2012,08,16,08,00,23.20
2012,08,16,08,01,23.30
2012,08,16,08,02,23.30
2012,08,16,08,03,23.40
2012,08,16,08,04,23.40
2012,08,16,08,05,23.50
2012,08,16,08,06,23.50
2012,08,16,08,07,23.50
2012,08,16,08,08,23.60
2012,08,16,08,09,23.60
2012,08,16,08,10,23.70
2012,08,16,08,11,23.70
2012,08,16,08,12,23.70
2012,08,16,08,13,23.70
2012,08,16,08,14,23.70
2012,08,16,08,15,23.80
2012,08,16,08,16,23.80
2012,08,16,08,17,23.90
2012,08,16,08,18,23.90
2012,08,16,08,19,24.00
2012,08,16,08,20,24.00
2012,08,16,08,21,24.10
2012,08,16,08,22,24.20
2012,08,16,08,23,24.30
2012,08,16,08,24,24.30
2012,08,16,08,25,24.40
2012,08,16,08,26,24.40
2012,08,16,08,27,24.40
2012,08,16,08,28,24.50
2012,08,16,08,29,24.50
2012,08,16,08,30,24.50
2012,08,16,08,31,24.60
2012,08,16,08,32,24.60
2012,08,16,08,33,24.60
2012,08,16,08,34,24.60
2012,08,16,08,35,24.60
2012,08,16,08,36,24.70
2012,08,16,08,37,24.70
2012,08,16,08,38,24.80
2012,08,16,08,39,24.80
2012,08,16,08,40,24.80
2012,08,16,08,41,24.80
2012,08,16,08,42,24.80
2012,08,16,08,43,24.90
2012,08,16,08,44,24.90
2012,08,16,08,45,25.00
2012,08,16,08,46,25.00
2012,08,16,08,47,25.00
2012,08,16,08,48,24.90
2012,08,16,08,49,24.90
2012,08,16,08,50,24.90
2012,08,16,08,51,24.90
2012,08,16,08,52,24.90
2012,08,16,08,53,24.90
2012,08,16,08,54,24.90
2012,08,16,08,55,25.00
2012,08,16,08,56,25.00
2012,08,16,08,57,25.00
2012,08,16,08,58,25.00
2012,08,16,08,59,25.00
2012,08,16,09,00,25.00
2012,08,16,09,01,25.00
2012,08,16,09,02,25.10
2012,08,16,09,03,25.10
2012,08,16,09,04,25.10
2012,08,16,09,05,25.10
2012,08,16,09,06,25.10
2012,08,16,09,07,25.10
2012,08,16,09,08,25.20
2012,08,16,09,09,25.20
2012,08,16,09,10,25.20
2012,08,16,09,11,25.30
2012,08,16,09,12,25.30
2012,08,16,09,13,25.40
2012,08,16,09,14,25.40
2012,08,16,09,15,25.50
2012,08,16,09,16,25.60
2012,08,16,09,17,25.60
2012,08,16,09,18,25.60
2012,08,16,09,19,25.70
2012,08,16,09,20,25.70
2012,08,16,09,21,25.70
2012,08,16,09,22,25.80
2012,08,16,09,23,25.80
2012,08,16,09,24,25.90
2012,08,16,09,25,25.90
2012,08,16,09,26,26.00
2012,08,16,09,27,26.00
2012,08,16,09,28,26.10
2012,08,16,09,29,26.10
2012,08,16,09,30,26.10
2012,08,16,09,31,26.10
2012,08,16,09,32,26.10
2012,08,16,09,33,26.20
2012,08,16,09,34,26.20
2012,08,16,09,35,26.20
2012,08,16,09,36,26.20
2012,08,16,09,37,26.20
2012,08,16,09,38,26.20
2012,08,16,09,39,26.10
2012,08,16,09,40,26.10
2012,08,16,09,41,26.20
2012,08,16,09,42,26.20
2012,08,16,09,43,26.20
2012,08,16,09,44,26.20
2012,08,16,09,45,26.20
2012,08,16,09,46,26.20
2012,08,16,09,47,26.20
2012,08,16,09,48,26.20
2012,08,16,09,49,26.30
2012,08,16,09,50,26.30
2012,08,16,09,51,26.30
2012,08,16,09,52,26.30
2012,08,16,09,53,26.30
2012,08,16,09,54,26.30
2012,08,16,09,55,26.30
2012,08,16,09,56,26.40
2012,08,16,09,57,26.40
2012,08,16,09,58,26.40
2012,08,16,09,59,26.50
2012,08,16,10,00,26.50
2012,08,16,10,01,26.60
2012,08,16,10,02,26.60
2012,08,16,10,03,26.70
2012,08,16,10,04,26.70
2012,08,16,10,05,26.70
2012,08,16,10,06,26.70
2012,08,16,10,07,26.80
2012,08,16,10,08,26.80
2012,08,16,10,09,26.90
2012,08,16,10,10,26.90
2012,08,16,10,11,26.90
2012,08,16,10,12,27.00
2012,08,16,10,13,27.00
2012,08,16,10,14,27.10
2012,08,16,10,15,27.10
2012,08,16,10,16,27.20
2012,08,16,10,17,27.20
2012,08,16,10,18,27.20
2012,08,16,10,19,27.30
2012,08,16,10,20,27.30
2012,08,16,10,21,27.20
2012,08,16,10,22,27.20
2012,08,16,10,23,27.30
2012,08,16,10,24,27.30
2012,08,16,10,25,27.30
2012,08,16,10,26,27.30
2012,08,16,10,27,27.30
2012,08,16,10,28,27.30
2012,08,16,10,29,27.40
2012,08,16,10,30,27.50
2012,08,16,10,31,27.50
2012,08,16,10,32,27.60
2012,08,16,10,33,27.60
2012,08,16,10,34,27.70
2012,08,16,10,35,27.70
2012,08,16,10,36,27.70
2012,08,16,10,37,27.70
2012,08,16,10,38,27.70
2012,08,16,10,39,27.70
2012,08,16,10,40,27.70
2012,08,16,10,41,27.70
2012,08,16,10,42,27.60
2012,08,16,10,43,27.70
2012,08,16,10,44,27.80
2012,08,16,10,45,27.90
2012,08,16,10,46,27.90
2012,08,16,10,47,28.00
2012,08,16,10,48,28.10
2012,08,16,10,49,28.10
2012,08,16,10,50,28.10
2012,08,16,10,51,28.10
2012,08,16,10,52,28.10
2012,08,16,10,53,28.10
2012,08,16,10,54,28.20
2012,08,16,10,55,28.20
2012,08,16,10,56,28.20
2012,08,16,10,57,28.20
2012,08,16,10,58,28.30
2012,08,16,10,59,28.30
2012,08,16,11,00,28.30
2012,08,16,11,01,28.40
2012,08,16,11,02,28.40
2012,08,16,11,03,28.50
2012,08,16,11,04,28.50
2012,08,16,11,05,28.60
2012,08,16,11,06,28.70
2012,08,16,11,07,28.90
2012,08,16,11,08,29.00
2012,08,16,11,09,29.00
2012,08,16,11,10,29.10
2012,08,16,11,11,29.20
2012,08,16,11,12,29.20
2012,08,16,11,13,29.20
2012,08,16,11,14,29.30
2012,08,16,11,15,29.30
2012,08,16,11,16,29.30
2012,08,16,11,17,29.30
2012,08,16,11,18,29.20
2012,08,16,11,19,29.20
2012,08,16,11,20,29.20
2012,08,16,11,21,29.20
2012,08,16,11,22,29.30
2012,08,16,11,23,29.30
2012,08,16,11,24,29.30
2012,08,16,11,25,29.40
2012,08,16,11,26,29.40
2012,08,16,11,27,29.40
2012,08,16,11,28,29.50
2012,08,16,11,29,29.60
2012,08,16,11,30,29.60
2012,08,16,11,31,29.60
2012,08,16,11,32,29.70
2012,08,16,11,33,29.70
2012,08,16,11,34,29.70
2012,08,16,11,35,29.70
2012,08,16,11,36,29.70
2012,08,16,11,37,29.60
2012,08,16,11,38,29.50
2012,08,16,11,39,29.50
2012,08,16,11,40,29.40
2012,08,16,11,41,29.40
2012,08,16,11,42,29.50
2012,08,16,11,43,29.60
2012,08,16,11,44,29.60
2012,08,16,11,45,29.60
2012,08,16,11,46,29.70
2012,08,16,11,47,29.70
2012,08,16,11,48,29.60
2012,08,16,11,49,29.50
2012,08,16,11,50,29.40
2012,08,16,11,51,29.40
2012,08,16,11,52,29.40
2012,08,16,11,53,29.50
2012,08,16,11,54,29.40
2012,08,16,11,55,29.40
2012,08,16,11,56,29.20
2012,08,16,11,57,29.20
2012,08,16,11,58,29.20
2012,08,16,11,59,29.20
2012,08,16,12,00,29.10
2012,08,16,12,01,29.20
2012,08,16,12,02,29.40
2012,08,16,12,03,29.50
2012,08,16,12,04,29.60
2012,08,16,12,05,29.60
2012,08,16,12,06,29.50
2012,08,16,12,07,29.40
2012,08,16,12,08,29.30
2012,08,16,12,09,29.30
2012,08,16,12,10,29.30
2012,08,16,12,11,29.30
2012,08,16,12,12,29.30
2012,08,16,12,13,29.30
2012,08,16,12,14,29.30
2012,08,16,12,15,29.40
2012,08,16,12,16,29.40
2012,08,16,12,17,29.40
2012,08,16,12,18,29.40
2012,08,16,12,19,29.30
2012,08,16,12,20,29.30
2012,08,16,12,21,29.30
2012,08,16,12,22,29.30
2012,08,16,12,23,29.30
2012,08,16,12,24,29.30
2012,08,16,12,25,29.30
2012,08,16,12,26,29.40
2012,08,16,12,27,29.40
2012,08,16,12,28,29.50
2012,08,16,12,29,29.60
2012,08,16,12,30,29.70
2012,08,16,12,31,29.80
2012,08,16,12,32,29.80
2012,08,16,12,33,29.80
2012,08,16,12,34,29.70
2012,08,16,12,35,29.60
2012,08,16,12,36,29.60
2012,08,16,12,37,29.50
2012,08,16,12,38,29.40
2012,08,16,12,39,29.30
2012,08,16,12,40,29.30
2012,08,16,12,41,29.30
2012,08,16,12,42,29.30
2012,08,16,12,43,29.20
2012,08,16,12,44,29.10
2012,08,16,12,45,29.10
2012,08,16,12,46,29.10
2012,08,16,12,47,29.20
2012,08,16,12,48,29.40
2012,08,16,12,49,29.50
2012,08,16,12,50,29.50
2012,08,16,12,51,29.50
2012,08,16,12,52,29.60
2012,08,16,12,53,29.60
2012,08,16,12,54,29.60
2012,08,16,12,55,29.60
2012,08,16,12,56,29.60
2012,08,16,12,57,29.60
2012,08,16,12,58,29.60
2012,08,16,12,59,29.60
2012,08,16,13,00,29.60
2012,08,16,13,01,29.60
2012,08,16,13,02,29.70
2012,08,16,13,03,29.70
2012,08,16,13,04,29.80
2012,08,16,13,05,29.90
2012,08,16,13,06,29.90
2012,08,16,13,07,30.00
2012,08,16,13,08,29.90
2012,08,16,13,09,29.90
2012,08,16,13,10,29.80
2012,08,16,13,11,29.70
2012,08,16,13,12,29.70
2012,08,16,13,13,29.70
2012,08,16,13,14,29.70
2012,08,16,13,15,29.70
2012,08,16,13,16,29.70
2012,08,16,13,17,29.80
2012,08,16,13,18,29.90
2012,08,16,13,19,30.00
2012,08,16,13,20,30.10
2012,08,16,13,21,30.20
2012,08,16,13,22,30.30
2012,08,16,13,23,30.40
2012,08,16,13,24,30.40
2012,08,16,13,25,30.40
2012,08,16,13,26,30.40
2012,08,16,13,27,30.40
2012,08,16,13,28,30.50
2012,08,16,13,29,30.60
2012,08,16,13,30,30.70
2012,08,16,13,31,30.70
2012,08,16,13,32,30.70
2012,08,16,13,33,30.60
2012,08,16,13,34,30.40
2012,08,16,13,35,30.30
2012,08,16,13,36,30.20
2012,08,16,13,37,30.20
2012,08,16,13,38,30.20
2012,08,16,13,39,30.20
2012,08,16,13,40,30.30
2012,08,16,13,41,30.30
2012,08,16,13,42,30.20
2012,08,16,13,43,30.10
2012,08,16,13,44,30.10
2012,08,16,13,45,30.10
2012,08,16,13,46,30.10
2012,08,16,13,47,30.20
2012,08,16,13,48,30.20
2012,08,16,13,49,30.20
2012,08,16,13,50,30.30
2012,08,16,13,51,30.40
2012,08,16,13,52,30.50
2012,08,16,13,53,30.60
2012,08,16,13,54,30.60
2012,08,16,13,55,30.50
2012,08,16,13,56,30.40
2012,08,16,13,57,30.30
2012,08,16,13,58,30.30
2012,08,16,13,59,30.40
2012,08,16,14,00,30.40
2012,08,16,14,01,30.40
2012,08,16,14,02,30.30
2012,08,16,14,03,30.00
2012,08,16,14,04,29.60
2012,08,16,14,05,29.10
2012,08,16,14,06,28.60
2012,08,16,14,07,28.20
2012,08,16,14,08,27.90
2012,08,16,14,09,27.70
2012,08,16,14,10,27.60
2012,08,16,14,11,27.60
2012,08,16,14,12,27.70
2012,08,16,14,13,27.80
2012,08,16,14,14,27.80
2012,08,16,14,15,27.80
2012,08,16,14,16,27.80
2012,08,16,14,17,27.80
2012,08,16,14,18,27.80
2012,08,16,14,19,27.80
2012,08,16,14,20,27.80
2012,08,16,14,21,27.80
2012,08,16,14,22,27.80
2012,08,16,14,23,27.80
2012,08,16,14,24,27.80
2012,08,16,14,25,27.70
2012,08,16,14,26,27.60
2012,08,16,14,27,27.30
2012,08,16,14,28,27.10
2012,08,16,14,29,26.80
2012,08,16,14,30,26.60
2012,08,16,14,31,26.40
2012,08,16,14,32,26.20
2012,08,16,14,33,26.10
2012,08,16,14,34,26.00
2012,08,16,14,35,26.00
2012,08,16,14,36,26.00
2012,08,16,14,37,26.00
2012,08,16,14,38,26.00
2012,08,16,14,39,26.10
2012,08,16,14,40,26.20
2012,08,16,14,41,26.20
2012,08,16,14,42,26.30
2012,08,16,14,43,26.40
2012,08,16,14,44,26.50
2012,08,16,14,45,26.60
2012,08,16,14,46,26.70
2012,08,16,14,47,26.80
2012,08,16,14,48,26.80
2012,08,16,14,49,26.80
2012,08,16,14,50,26.70
2012,08,16,14,51,26.70
2012,08,16,14,52,26.50
2012,08,16,14,53,26.40
2012,08,16,14,54,26.30
2012,08,16,14,55,26.10
2012,08,16,14,56,26.00
2012,08,16,14,57,25.90
2012,08,16,14,58,25.90
2012,08,16,14,59,25.90
2012,08,16,15,00,26.00
2012,08,16,15,01,26.10
2012,08,16,15,02,26.10
2012,08,16,15,03,26.10
2012,08,16,15,04,26.10
2012,08,16,15,05,26.10
2012,08,16,15,06,26.20
2012,08,16,15,07,26.20
2012,08,16,15,08,26.20
2012,08,16,15,09,26.30
2012,08,16,15,10,26.30
2012,08,16,15,11,26.30
2012,08,16,15,12,26.30
2012,08,16,15,13,26.40
2012,08,16,15,14,26.40
2012,08,16,15,15,26.40
2012,08,16,15,16,26.50
2012,08,16,15,17,26.60
2012,08,16,15,18,26.70
2012,08,16,15,19,26.70
2012,08,16,15,20,26.70
2012,08,16,15,21,26.70
2012,08,16,15,22,26.70
2012,08,16,15,23,26.70
2012,08,16,15,24,26.70
2012,08,16,15,25,26.60
2012,08,16,15,26,26.60
2012,08,16,15,27,26.60
2012,08,16,15,28,26.50
2012,08,16,15,29,26.60
2012,08,16,15,30,26.60
2012,08,16,15,31,26.70
2012,08,16,15,32,26.70
2012,08,16,15,33,26.80
2012,08,16,15,34,26.80
2012,08,16,15,35,26.90
2012,08,16,15,36,26.90
2012,08,16,15,37,26.90
2012,08,16,15,38,26.90
2012,08,16,15,39,26.80
2012,08,16,15,40,26.80
2012,08,16,15,41,26.80
2012,08,16,15,42,26.70
2012,08,16,15,43,26.70
2012,08,16,15,44,26.60
2012,08,16,15,45,26.60
2012,08,16,15,46,26.60
2012,08,16,15,47,26.70
2012,08,16,15,48,26.70
2012,08,16,15,49,26.80
2012,08,16,15,50,26.80
2012,08,16,15,51,26.90
2012,08,16,15,52,26.90
2012,08,16,15,53,26.90
2012,08,16,15,54,26.90
2012,08,16,15,55,27.00
2012,08,16,15,56,27.10
2012,08,16,15,57,27.20
2012,08,16,15,58,27.20
2012,08,16,15,59,27.30
2012,08,16,16,00,27.40
2012,08,16,16,01,27.40
2012,08,16,16,02,27.50
2012,08,16,16,03,27.60
2012,08,16,16,04,27.70
2012,08,16,16,05,27.80
2012,08,16,16,06,27.80
2012,08,16,16,07,27.90
2012,08,16,16,08,28.00
2012,08,16,16,09,28.10
2012,08,16,16,10,28.30
2012,08,16,16,11,28.40
2012,08,16,16,12,28.50
2012,08,16,16,13,28.60
2012,08,16,16,14,28.70
2012,08,16,16,15,28.70
2012,08,16,16,16,28.70
2012,08,16,16,17,28.70
2012,08,16,16,18,28.70
2012,08,16,16,19,28.60
2012,08,16,16,20,28.60
2012,08,16,16,21,28.60
2012,08,16,16,22,28.60
2012,08,16,16,23,28.60
2012,08,16,16,24,28.60
2012,08,16,16,25,28.70
2012,08,16,16,26,28.80
2012,08,16,16,27,28.80
2012,08,16,16,28,28.90
2012,08,16,16,29,28.90
2012,08,16,16,30,28.90
2012,08,16,16,31,28.90
2012,08,16,16,32,28.90
2012,08,16,16,33,28.90
2012,08,16,16,34,28.80
2012,08,16,16,35,28.90
2012,08,16,16,36,28.90
2012,08,16,16,37,28.90
2012,08,16,16,38,29.00
2012,08,16,16,39,29.00
2012,08,16,16,40,29.00
2012,08,16,16,41,29.00
2012,08,16,16,42,28.90
2012,08,16,16,43,28.90
2012,08,16,16,44,28.90
2012,08,16,16,45,28.80
2012,08,16,16,46,28.80
2012,08,16,16,47,28.80
2012,08,16,16,48,28.80
2012,08,16,16,49,28.80
2012,08,16,16,50,28.90
2012,08,16,16,51,29.00
2012,08,16,16,52,29.00
2012,08,16,16,53,29.10
2012,08,16,16,54,29.20
2012,08,16,16,55,29.20
2012,08,16,16,56,29.20
2012,08,16,16,57,29.20
2012,08,16,16,58,29.20
2012,08,16,16,59,29.20
2012,08,16,17,00,29.20
2012,08,16,17,01,29.30
2012,08,16,17,02,29.30
2012,08,16,17,03,29.30
2012,08,16,17,04,29.30
2012,08,16,17,05,29.30
2012,08,16,17,06,29.30
2012,08,16,17,07,29.30
2012,08,16,17,08,29.30
2012,08,16,17,09,29.20
2012,08,16,17,10,29.20
2012,08,16,17,11,29.20
2012,08,16,17,12,29.20
2012,08,16,17,13,29.20
2012,08,16,17,14,29.30
2012,08,16,17,15,29.40
2012,08,16,17,16,29.40
2012,08,16,17,17,29.40
2012,08,16,17,18,29.40
2012,08,16,17,19,29.40